Location: Arbon
(43.0005°N, 0.7472°E)
Time: 11:42:57
(UTC+00:00)

A-11 Canister half - All Passes

Search period start: 30 November 2020 00:00
Search period end: 10 December 2020 00:00
Orbit: 1516 x 1684 km, 47.2° (Epoch: 29 November)

Date Brightness Start Highest point End Pass type
(mag) Time Alt. Az. Time Alt. Az. Time Alt. Az.
30 Nov - 08:10:54 10° ESE 08:11:29 10° ESE 08:12:04 10° ESE daylight
30 Nov - 10:05:23 10° SSW 10:14:21 44° SE 10:23:35 10° ENE daylight
30 Nov - 12:08:56 10° WSW 12:18:51 87° NNW 12:29:04 10° ENE daylight
30 Nov - 14:14:35 10° W 14:24:37 70° N 14:34:49 10° E daylight
30 Nov - 16:20:03 10° WNW 16:30:14 84° SSW 16:40:25 10° ESE daylight
30 Nov - 18:25:38 10° WNW 18:34:29 36° SW 18:43:15 10° SSE visible
01 Dec - 09:42:40 10° SSW 09:51:29 41° SE 10:00:35 10° ENE daylight
01 Dec - 11:46:02 10° WSW 11:55:54 89° NNW 12:06:06 10° ENE daylight
01 Dec - 13:51:36 10° W 14:01:37 70° N 14:11:48 10° E daylight
01 Dec - 15:57:05 10° WNW 16:07:16 86° SSW 16:17:28 10° ESE daylight
01 Dec - 18:02:37 10° WNW 18:11:37 38° SW 18:20:34 10° SSE visible
02 Dec - 09:19:58 10° SSW 09:28:37 39° SE 09:37:32 10° ENE daylight
02 Dec - 11:23:06 10° WSW 11:32:56 89° SSE 11:43:07 10° ENE daylight
02 Dec - 13:28:38 10° W 13:38:36 70° N 13:48:47 10° E daylight
02 Dec - 15:34:08 10° WNW 15:44:18 89° SSW 15:54:32 10° ESE daylight
02 Dec - 17:39:35 10° WNW 17:48:44 40° SW 17:57:50 10° SSE visible
03 Dec - 08:57:18 10° SSW 09:05:46 37° SE 09:14:31 10° ENE daylight
03 Dec - 11:00:12 10° WSW 11:09:59 86° SSE 11:20:08 10° ENE daylight
03 Dec - 13:05:40 10° W 13:15:36 70° N 13:25:47 10° E daylight
03 Dec - 15:11:12 10° WNW 15:21:21 89° NNE 15:31:34 10° ESE daylight
03 Dec - 17:16:35 10° WNW 17:25:51 42° SW 17:35:06 10° SSE visible
04 Dec - 08:34:38 10° SSW 08:42:55 34° SE 08:51:28 10° ENE daylight
04 Dec - 10:37:18 10° WSW 10:47:03 84° SSE 10:57:09 10° ENE daylight
04 Dec - 12:42:41 10° W 12:52:36 70° N 13:02:46 10° E daylight
04 Dec - 14:48:14 10° WNW 14:58:22 87° NNE 15:08:36 10° ESE daylight
04 Dec - 16:53:34 10° WNW 17:02:58 45° SW 17:12:22 10° SSE visible
04 Dec - 19:03:41 10° WSW 19:05:59 11° WSW 19:08:18 10° SW visible
05 Dec - 08:12:00 10° S 08:20:05 32° SE 08:28:25 10° ENE daylight
05 Dec - 10:14:25 10° WSW 10:24:06 81° SSE 10:34:11 10° ENE daylight
05 Dec - 12:19:43 10° W 12:29:37 70° N 12:39:46 10° E daylight
05 Dec - 14:25:17 10° WNW 14:35:24 85° NNE 14:45:38 10° ESE daylight
05 Dec - 16:30:36 10° WNW 16:40:05 47° SW 16:49:35 10° SSE daylight
05 Dec - 18:39:38 10° W 18:43:11 12° WSW 18:46:45 10° SW visible
06 Dec - 07:49:24 10° S 07:57:15 30° SE 08:05:20 10° ENE daylight
06 Dec - 09:51:32 10° SW 10:01:11 78° SSE 10:11:13 10° ENE daylight
06 Dec - 11:56:45 10° W 12:06:36 71° N 12:16:45 10° E daylight
06 Dec - 14:02:20 10° WNW 14:12:26 83° NNE 14:22:39 10° ESE daylight
06 Dec - 16:07:36 10° WNW 16:17:11 50° SW 16:26:47 10° SSE daylight
06 Dec - 18:15:57 10° W 18:20:23 14° WSW 18:24:49 10° SSW visible
07 Dec - 07:26:49 10° S 07:34:26 28° SE 07:42:14 10° ENE daylight
07 Dec - 09:28:40 10° SW 09:38:15 75° SSE 09:48:14 10° ENE daylight
07 Dec - 11:33:47 10° W 11:43:37 71° N 11:53:45 10° ENE daylight
07 Dec - 13:39:23 10° WNW 13:49:26 81° NNE 13:59:40 10° ESE daylight
07 Dec - 15:44:38 10° WNW 15:54:17 53° SW 16:03:59 10° SSE daylight
07 Dec - 17:52:27 10° W 17:57:34 15° WSW 18:02:42 10° SSW visible
08 Dec - 07:04:16 10° S 07:11:36 26° SE 07:19:08 10° ENE daylight
08 Dec - 09:05:49 10° SW 09:15:20 72° SSE 09:25:15 10° ENE daylight
08 Dec - 11:10:50 10° W 11:20:38 72° N 11:30:45 10° ENE daylight
08 Dec - 13:16:27 10° WNW 13:26:28 79° NNE 13:36:41 10° ESE daylight
08 Dec - 15:21:41 10° WNW 15:31:23 55° SW 15:41:10 10° SE daylight
08 Dec - 17:29:04 10° W 17:34:45 17° WSW 17:40:27 10° SSW visible
09 Dec - 06:41:45 10° S 06:48:47 24° SE 06:56:00 10° E visible
09 Dec - 08:42:58 10° SW 08:52:25 70° SSE 09:02:16 10° ENE daylight
09 Dec - 10:47:52 10° W 10:57:38 73° N 11:07:44 10° ENE daylight
09 Dec - 12:53:30 10° WNW 13:03:28 78° NNE 13:13:41 10° ESE daylight
09 Dec - 14:58:42 10° WNW 15:08:28 58° SW 15:18:19 10° SE daylight
09 Dec - 17:05:46 10° W 17:11:56 18° SW 17:18:07 10° SSW visible
